DW4776 Weather Reports


time (UTC)temp
C
wind
direction
speed
KPH
gust
KPH
rain 1hr
cm
rain 24hr
cm
rain mn
cm
humidity
%
barometer
mb
20260906231550 17 279 4.8 11.3 0.00 0.15 0.08 75 1016.2
20260906230100 17 338 3.2 11.3 0.00 0.15 0.08 75 1016.3
20260906224545 17 356 4.8 16.1 0.00 0.15 0.08 75 1016.4
20260906223053 17 45 8.0 14.5 0.00 0.15 0.08 75 1016.5
20260906221545 17 60 11.3 19.3 0.00 0.15 0.08 75 1016.6
20260906220047 16 22 12.9 20.9 0.00 0.15 0.08 76 1016.6
20260906214546 17 36 12.9 22.5 0.00 0.15 0.08 75 1016.5
20260906213049 17 31 14.5 24.1 0.00 0.15 0.08 75 1016.5
20260906211545 17 28 16.1 24.1 0.00 0.15 0.08 74 1016.4
20260906210046 17 50 17.7 24.1 0.00 0.15 0.08 75 1016.5
20260906204543 17 5 14.5 22.5 0.00 0.15 0.08 75 1016.5
20260906203041 16 20 16.1 25.7 0.00 0.15 0.08 75 1016.6
20260906201613 16 21 14.5 27.4 0.00 0.15 0.08 74 1016.8
20260906200045 16 14 16.1 27.4 0.00 0.15 0.08 73 1016.9
20260906194556 16 32 17.7 29.0 0.00 0.15 0.08 72 1016.8
20260906193046 17 1 14.5 30.6 0.00 0.15 0.08 71 1016.8
20260906191544 17 18 19.3 35.4 0.00 0.15 0.08 70 1016.7
20260906190043 16 24 25.7 41.8 0.00 0.15 0.08 70 1016.5
20260906184547 16 351 27.4 41.8 0.03 0.15 0.08 69 1016.4
20260906183054 16 358 33.8 41.8 0.03 0.15 0.08 69 1016.6
20260906181550 15 45 24.1 35.4 0.03 0.15 0.08 75 1017.1
20260906180049 14 354 19.3 27.4 0.03 0.15 0.08 79 1017.1
20260906174603 13 50 12.9 19.3 0.00 0.13 0.05 83 1017.4
20260906173045 14 290 16.1 27.4 0.00 0.13 0.05 80 1018.6
20260906171544 14 339 22.5 30.6 0.00 0.13 0.05 76 1018.6
20260906170040 14 345 20.9 32.2 0.00 0.13 0.05 77 1018.5
20260906164545 14 345 16.1 29.0 0.05 0.13 0.05 80 1018.7
20260906163050 13 333 22.5 27.4 0.05 0.13 0.05 81 1018.6
20260906161548 13 321 8.0 19.3 0.05 0.13 0.05 84 1018.4
20260906160049 14 84 4.8 9.7 0.05 0.13 0.05 85 1018.5
20260906154545 14 19 4.8 17.7 0.00 0.08 0.00 84 1018.9
20260906153057 13 36 6.4 14.5 0.00 0.08 0.00 85 1018.8
20260906151543 13 299 8.0 20.9 0.00 0.08 0.00 85 1019.0
20260906150047 12 294 19.3 33.8 0.00 0.08 0.00 85 1019.4
20260906144543 14 274 19.3 25.7 0.00 0.10 0.00 83 1019.9
20260906143042 14 35 20.9 29.0 0.00 0.10 0.00 84 1018.8
20260906141543 14 73 19.3 29.0 0.00 0.10 0.00 84 1018.8
20260906140050 14 20 17.7 29.0 0.00 0.10 0.00 84 1018.9
20260906134548 14 31 17.7 27.4 0.00 0.18 0.00 85 1018.6
20260906133052 13 25 19.3 32.2 0.00 0.18 0.00 86 1018.5
20260906131543 13 40 17.7 25.7 0.00 0.18 0.00 86 1018.5
20260906130055 13 24 17.7 29.0 0.00 0.18 0.00 87 1018.9
20260906124542 13 27 16.1 35.4 0.00 0.18 0.00 86 1018.9
20260906123048 13 21 20.9 32.2 0.00 0.18 0.00 86 1018.6
20260906121548 13 27 19.3 29.0 0.00 0.18 0.00 87 1019.0
20260906120046 13 353 17.7 29.0 0.00 0.18 0.00 86 1019.1
20260906114539 13 8 20.9 32.2 0.00 0.18 0.00 86 1019.3
20260906113046 13 8 19.3 29.0 0.00 0.18 0.00 86 1019.1
20260906111555 13 16 20.9 30.6 0.00 0.18 0.00 86 1019.0
20260906110044 13 17 22.5 32.2 0.00 0.18 0.00 85 1018.9
20260906104543 13 18 20.9 30.6 0.00 0.18 0.00 85 1019.1
20260906103045 13 13 22.5 37.0 0.00 0.18 0.00 85 1018.9
20260906101544 13 12 22.5 38.6 0.00 0.18 0.00 84 1019.4
20260906100044 13 341 25.7 37.0 0.00 0.18 0.00 85 1018.9
20260906094539 12 352 24.1 40.2 0.00 0.18 0.00 85 1018.9
20260906093054 13 2 29.0 45.1 0.00 0.18 0.00 86 1019.3
20260906091544 13 327 24.1 35.4 0.00 0.18 0.00 86 1019.9
20260906090052 13 345 24.1 45.1 0.00 0.18 0.00 86 1020.2
20260906084551 13 347 29.0 41.8 0.00 0.18 0.00 86 1019.6
20260906083045 13 2 27.4 40.2 0.00 0.18 0.00 85 1019.5
20260906081551 13 5 22.5 38.6 0.00 0.18 0.00 83 1019.8
20260906080045 13 359 25.7 38.6 0.00 0.18 0.00 83 1019.6
20260906074547 13 356 27.4 45.1 0.00 0.18 0.00 82 1019.7
20260906073055 13 6 29.0 41.8 0.00 0.18 0.00 82 1019.7
20260906071545 13 6 29.0 41.8 0.00 0.18 0.00 82 1020.0
20260906070054 13 1 25.7 38.6 0.00 0.18 0.00 83 1020.3
20260906064546 13 15 29.0 40.2 0.00 0.18 0.00 82 1020.6
20260906063046 13 2 27.4 41.8 0.00 0.18 0.00 82 1020.5
20260906061600 13 32 29.0 40.2 0.00 0.18 0.00 82 1020.7
20260906060044 13 347 25.7 40.2 0.03 0.18 0.00 83 1020.7
20260906054546 13 11 30.6 43.5 0.03 0.18 0.18 83 1020.6
20260906053050 13 356 24.1 35.4 0.03 0.18 0.18 83 1020.6
20260906051545 13 3 29.0 41.8 0.03 0.18 0.18 81 1020.3
20260906050104 13 358 27.4 37.0 0.00 0.15 0.15 79 1020.3
20260906044545 13 351 32.2 43.5 0.00 0.15 0.15 79 1020.5
20260906043058 13 357 30.6 49.9 0.05 0.15 0.15 80 1020.0
20260906041544 13 345 30.6 46.7 0.05 0.15 0.15 82 1019.9
20260906040104 13 352 33.8 48.3 0.05 0.15 0.15 81 1019.8
20260906034545 14 3 29.0 40.2 0.05 0.15 0.15 78 1020.4
20260906033045 15 347 22.5 38.6 0.00 0.10 0.10 71 1021.4
20260906031542 15 353 25.7 51.5 0.00 0.10 0.10 71 1020.0
20260906030048 15 356 30.6 45.1 0.00 0.10 0.10 70 1019.3
20260906024547 15 354 32.2 46.7 0.00 0.10 0.10 69 1018.8
20260906023101 15 340 25.7 48.3 0.00 0.10 0.10 68 1018.8
20260906021544 15 14 22.5 38.6 0.00 0.10 0.10 67 1018.7
20260906020048 16 340 24.1 40.2 0.00 0.10 0.10 66 1018.9
20260906014556 16 6 20.9 32.2 0.00 0.10 0.10 63 1018.9
20260906013044 17 19 20.9 32.2 0.00 0.10 0.10 62 1018.6
20260906011553 17 14 22.5 30.6 0.00 0.10 0.10 60 1018.8
20260906010044 18 6 20.9 33.8 0.00 0.10 0.10 58 1018.7
20260906004542 18 29 24.1 35.4 0.00 0.10 0.10 55 1019.0
20260906003047 19 342 22.5 33.8 0.00 0.10 0.10 55 1019.1
20260906001544 18 27 24.1 32.2 0.00 0.10 0.10 56 1019.0
20260906000044 19 358 20.9 30.6 0.00 0.10 0.10 56 1019.4
20260905234552 19 10 19.3 29.0 0.00 0.10 0.10 54 1019.4
20260905233044 19 25 17.7 30.6 0.00 0.10 0.10 54 1019.3